User: anonymous   Login
Location: NJAA Observatory
(40.6819°N, 74.8979°W)
Time: 18:14:13
(UTC-04:00)
Language:

Cosmos 2082 - Orbit

View from above orbital plane
View from above orbital plane
View from above satellite
View from above satellite

Ground track
Ground track

The orbit data is extracted from the following two-line orbital elements,

1 20624U 90046A   15213.16165397  .00000126  00000-0  91004-4 0  9990
2 20624 071.0393 210.3885 0015564 345.5833 014.4843 14.14169209300204
Epoch (UTC): 01 August 2015 03:52:46
Eccentricity: 0.0015564
inclination: 71.0393°
perigee height: 834 km
apogee height: 856 km
right ascension of ascending node: 210.3885°
argument of perigee: 345.5833°
revolutions per day: 14.14169209
mean anomaly at epoch: 14.4843°
orbit number at epoch: 30020

The dashed part of the orbit path shows where the satellite is in the earth's shadow,  

DLR